Year,Month,Day,Hour,Minute,Value (Times are PST for windspeed in km/hr)
2008,06,08,00,00,10.50
2008,06,08,00,01,8.00
2008,06,08,00,02,9.10
2008,06,08,00,03,6.70
2008,06,08,00,04,5.00
2008,06,08,00,05,4.40
2008,06,08,00,06,4.90
2008,06,08,00,07,5.90
2008,06,08,00,08,9.30
2008,06,08,00,09,12.00
2008,06,08,00,10,5.80
2008,06,08,00,11,6.70
2008,06,08,00,12,6.60
2008,06,08,00,13,10.50
2008,06,08,00,14,8.80
2008,06,08,00,15,9.70
2008,06,08,00,16,7.60
2008,06,08,00,17,6.70
2008,06,08,00,18,6.40
2008,06,08,00,19,7.40
2008,06,08,00,20,6.50
2008,06,08,00,21,5.40
2008,06,08,00,22,10.40
2008,06,08,00,23,11.40
2008,06,08,00,24,11.30
2008,06,08,00,25,10.10
2008,06,08,00,26,16.00
2008,06,08,00,27,10.80
2008,06,08,00,28,7.80
2008,06,08,00,29,7.50
2008,06,08,00,30,6.40
2008,06,08,00,31,5.40
2008,06,08,00,32,8.60
2008,06,08,00,33,8.00
2008,06,08,00,34,7.90
2008,06,08,00,35,9.10
2008,06,08,00,36,7.70
2008,06,08,00,37,9.40
2008,06,08,00,38,7.40
2008,06,08,00,39,8.10
2008,06,08,00,40,11.00
2008,06,08,00,41,10.30
2008,06,08,00,42,7.90
2008,06,08,00,43,3.70
2008,06,08,00,44,4.10
2008,06,08,00,45,5.30
2008,06,08,00,46,6.00
2008,06,08,00,47,9.10
2008,06,08,00,48,7.40
2008,06,08,00,49,6.30
2008,06,08,00,50,3.80
2008,06,08,00,51,7.70
2008,06,08,00,52,6.80
2008,06,08,00,53,7.90
2008,06,08,00,54,7.80
2008,06,08,00,55,5.90
2008,06,08,00,56,6.30
2008,06,08,00,57,7.00
2008,06,08,00,58,5.90
2008,06,08,00,59,6.50
2008,06,08,01,00,5.60
2008,06,08,01,01,6.40
2008,06,08,01,02,8.20
2008,06,08,01,03,9.70
2008,06,08,01,04,9.10
2008,06,08,01,05,8.60
2008,06,08,01,06,8.70
2008,06,08,01,07,6.30
2008,06,08,01,08,6.70
2008,06,08,01,09,7.00
2008,06,08,01,10,7.00
2008,06,08,01,11,9.90
2008,06,08,01,12,8.30
2008,06,08,01,13,12.50
2008,06,08,01,14,7.80
2008,06,08,01,15,13.20
2008,06,08,01,16,6.70
2008,06,08,01,17,5.50
2008,06,08,01,18,8.30
2008,06,08,01,19,9.90
2008,06,08,01,20,8.50
2008,06,08,01,21,9.30
2008,06,08,01,22,8.10
2008,06,08,01,23,9.90
2008,06,08,01,24,6.10
2008,06,08,01,25,6.10
2008,06,08,01,26,6.00
2008,06,08,01,27,10.10
2008,06,08,01,28,15.90
2008,06,08,01,29,9.90
2008,06,08,01,30,8.20
2008,06,08,01,31,7.90
2008,06,08,01,32,8.10
2008,06,08,01,33,9.10
2008,06,08,01,34,7.00
2008,06,08,01,35,6.90
2008,06,08,01,36,8.40
2008,06,08,01,37,11.40
2008,06,08,01,38,7.90
2008,06,08,01,39,7.60
2008,06,08,01,40,9.20
2008,06,08,01,41,5.30
2008,06,08,01,42,6.40
2008,06,08,01,43,6.10
2008,06,08,01,44,8.80
2008,06,08,01,45,9.40
2008,06,08,01,46,8.20
2008,06,08,01,47,8.30
2008,06,08,01,48,6.60
2008,06,08,01,49,7.60
2008,06,08,01,50,7.80
2008,06,08,01,51,11.00
2008,06,08,01,52,10.00
2008,06,08,01,53,7.10
2008,06,08,01,54,4.70
2008,06,08,01,55,4.00
2008,06,08,01,56,6.80
2008,06,08,01,57,7.20
2008,06,08,01,58,7.50
2008,06,08,01,59,9.80
2008,06,08,02,00,7.00
2008,06,08,02,01,7.50
2008,06,08,02,02,6.10
2008,06,08,02,03,5.20
2008,06,08,02,04,8.10
2008,06,08,02,05,6.50
2008,06,08,02,06,5.80
2008,06,08,02,07,7.20
2008,06,08,02,08,7.90
2008,06,08,02,09,11.40
2008,06,08,02,10,10.40
2008,06,08,02,11,8.80
2008,06,08,02,12,8.30
2008,06,08,02,13,11.20
2008,06,08,02,14,8.90
2008,06,08,02,15,9.60
2008,06,08,02,16,10.00
2008,06,08,02,17,7.00
2008,06,08,02,18,11.20
2008,06,08,02,19,11.70
2008,06,08,02,20,10.70
2008,06,08,02,21,13.70
2008,06,08,02,22,9.50
2008,06,08,02,23,11.20
2008,06,08,02,24,11.20
2008,06,08,02,25,8.00
2008,06,08,02,26,10.00
2008,06,08,02,27,9.50
2008,06,08,02,28,8.80
2008,06,08,02,29,10.30
2008,06,08,02,30,8.80
2008,06,08,02,31,8.40
2008,06,08,02,32,8.20
2008,06,08,02,33,9.00
2008,06,08,02,34,10.30
2008,06,08,02,35,8.70
2008,06,08,02,36,7.00
2008,06,08,02,37,6.70
2008,06,08,02,38,7.50
2008,06,08,02,39,8.60
2008,06,08,02,40,9.60
2008,06,08,02,41,7.30
2008,06,08,02,42,10.30
2008,06,08,02,43,8.60
2008,06,08,02,44,10.50
2008,06,08,02,45,7.70
2008,06,08,02,46,9.90
2008,06,08,02,47,10.30
2008,06,08,02,48,11.60
2008,06,08,02,49,9.30
2008,06,08,02,50,10.20
2008,06,08,02,51,10.00
2008,06,08,02,52,9.00
2008,06,08,02,53,8.40
2008,06,08,02,54,6.50
2008,06,08,02,55,7.20
2008,06,08,02,56,7.30
2008,06,08,02,57,5.90
2008,06,08,02,58,7.70
2008,06,08,02,59,7.30
2008,06,08,03,00,8.20
2008,06,08,03,01,9.80
2008,06,08,03,02,6.70
2008,06,08,03,03,6.50
2008,06,08,03,04,5.20
2008,06,08,03,05,5.50
2008,06,08,03,06,8.10
2008,06,08,03,07,5.90
2008,06,08,03,08,7.00
2008,06,08,03,09,6.00
2008,06,08,03,10,5.60
2008,06,08,03,11,6.80
2008,06,08,03,12,9.00
2008,06,08,03,13,7.60
2008,06,08,03,14,9.60
2008,06,08,03,15,6.30
2008,06,08,03,16,7.80
2008,06,08,03,17,8.10
2008,06,08,03,18,7.10
2008,06,08,03,19,7.80
2008,06,08,03,20,7.90
2008,06,08,03,21,5.10
2008,06,08,03,22,3.90
2008,06,08,03,23,4.40
2008,06,08,03,24,4.50
2008,06,08,03,25,4.80
2008,06,08,03,26,3.70
2008,06,08,03,27,5.30
2008,06,08,03,28,4.10
2008,06,08,03,29,5.10
2008,06,08,03,30,3.40
2008,06,08,03,31,4.50
2008,06,08,03,32,7.20
2008,06,08,03,33,4.70
2008,06,08,03,34,4.40
2008,06,08,03,35,3.50
2008,06,08,03,36,4.30
2008,06,08,03,37,3.70
2008,06,08,03,38,4.60
2008,06,08,03,39,5.70
2008,06,08,03,40,5.00
2008,06,08,03,41,8.10
2008,06,08,03,42,6.30
2008,06,08,03,43,7.10
2008,06,08,03,44,10.60
2008,06,08,03,45,9.10
2008,06,08,03,46,7.40
2008,06,08,03,47,8.00
2008,06,08,03,48,6.60
2008,06,08,03,49,9.80
2008,06,08,03,50,11.30
2008,06,08,03,51,9.40
2008,06,08,03,52,6.10
2008,06,08,03,53,6.00
2008,06,08,03,54,6.80
2008,06,08,03,55,5.00
2008,06,08,03,56,4.80
2008,06,08,03,57,5.40
2008,06,08,03,58,5.70
2008,06,08,03,59,6.40
2008,06,08,04,00,7.90
2008,06,08,04,01,11.30
2008,06,08,04,02,7.20
2008,06,08,04,03,9.70
2008,06,08,04,04,8.80
2008,06,08,04,05,5.50
2008,06,08,04,06,8.30
2008,06,08,04,07,14.20
2008,06,08,04,08,11.60
2008,06,08,04,09,13.20
2008,06,08,04,10,9.40
2008,06,08,04,11,8.80
2008,06,08,04,12,9.90
2008,06,08,04,13,12.60
2008,06,08,04,14,9.70
2008,06,08,04,15,8.50
2008,06,08,04,16,8.70
2008,06,08,04,17,12.50
2008,06,08,04,18,7.80
2008,06,08,04,19,4.80
2008,06,08,04,20,8.10
2008,06,08,04,21,5.80
2008,06,08,04,22,7.30
2008,06,08,04,23,10.30
2008,06,08,04,24,12.00
2008,06,08,04,25,11.30
2008,06,08,04,26,8.60
2008,06,08,04,27,7.30
2008,06,08,04,28,8.40
2008,06,08,04,29,7.70
2008,06,08,04,30,15.80
2008,06,08,04,31,12.90
2008,06,08,04,32,9.40
2008,06,08,04,33,8.50
2008,06,08,04,34,7.90
2008,06,08,04,35,8.10
2008,06,08,04,36,11.10
2008,06,08,04,37,6.70
2008,06,08,04,38,6.70
2008,06,08,04,39,8.60
2008,06,08,04,40,11.20
2008,06,08,04,41,10.00
2008,06,08,04,42,11.50
2008,06,08,04,43,9.80
2008,06,08,04,44,12.70
2008,06,08,04,45,9.80
2008,06,08,04,46,7.90
2008,06,08,04,47,7.70
2008,06,08,04,48,6.70
2008,06,08,04,49,8.20
2008,06,08,04,50,13.60
2008,06,08,04,51,11.10
2008,06,08,04,52,9.60
2008,06,08,04,53,10.90
2008,06,08,04,54,8.40
2008,06,08,04,55,7.60
2008,06,08,04,56,8.10
2008,06,08,04,57,5.20
2008,06,08,04,58,6.60
2008,06,08,04,59,8.20
2008,06,08,05,00,8.40
2008,06,08,05,01,5.60
2008,06,08,05,02,8.00
2008,06,08,05,03,4.40
2008,06,08,05,04,4.70
2008,06,08,05,05,2.70
2008,06,08,05,06,5.80
2008,06,08,05,07,11.80
2008,06,08,05,08,6.80
2008,06,08,05,09,11.20
2008,06,08,05,10,8.40
2008,06,08,05,11,11.00
2008,06,08,05,12,9.20
2008,06,08,05,13,11.20
2008,06,08,05,14,16.10
2008,06,08,05,15,9.20
2008,06,08,05,16,14.30
2008,06,08,05,17,13.80
2008,06,08,05,18,9.90
2008,06,08,05,19,8.70
2008,06,08,05,20,8.60
2008,06,08,05,21,7.60
2008,06,08,05,22,13.30
2008,06,08,05,23,10.30
2008,06,08,05,24,7.60
2008,06,08,05,25,10.60
2008,06,08,05,26,8.30
2008,06,08,05,27,7.10
2008,06,08,05,28,8.00
2008,06,08,05,29,8.20
2008,06,08,05,30,13.40
2008,06,08,05,31,8.90
2008,06,08,05,32,9.80
2008,06,08,05,33,6.30
2008,06,08,05,34,6.20
2008,06,08,05,35,9.00
2008,06,08,05,36,10.90
2008,06,08,05,37,9.00
2008,06,08,05,38,8.50
2008,06,08,05,39,9.80
2008,06,08,05,40,11.60
2008,06,08,05,41,13.10
2008,06,08,05,42,11.40
2008,06,08,05,43,7.60
2008,06,08,05,44,9.10
2008,06,08,05,45,8.10
2008,06,08,05,46,8.20
2008,06,08,05,47,9.80
2008,06,08,05,48,9.50
2008,06,08,05,49,8.20
2008,06,08,05,50,8.10
2008,06,08,05,51,7.70
2008,06,08,05,52,7.90
2008,06,08,05,53,7.90
2008,06,08,05,54,9.30
2008,06,08,05,55,6.40
2008,06,08,05,56,6.30
2008,06,08,05,57,6.60
2008,06,08,05,58,6.20
2008,06,08,05,59,9.70
2008,06,08,06,00,7.80
2008,06,08,06,01,8.00
2008,06,08,06,02,4.80
2008,06,08,06,03,9.90
2008,06,08,06,04,7.40
2008,06,08,06,05,6.80
2008,06,08,06,06,9.80
2008,06,08,06,07,9.00
2008,06,08,06,08,9.60
2008,06,08,06,09,9.10
2008,06,08,06,10,7.10
2008,06,08,06,11,8.50
2008,06,08,06,12,8.00
2008,06,08,06,13,6.80
2008,06,08,06,14,9.20
2008,06,08,06,15,7.10
2008,06,08,06,16,8.30
2008,06,08,06,17,7.30
2008,06,08,06,18,8.90
2008,06,08,06,19,15.30
2008,06,08,06,20,18.00
2008,06,08,06,21,10.10
2008,06,08,06,22,11.40
2008,06,08,06,23,9.30
2008,06,08,06,24,8.90
2008,06,08,06,25,6.30
2008,06,08,06,26,8.60
2008,06,08,06,27,12.90
2008,06,08,06,28,8.80
2008,06,08,06,29,12.60
2008,06,08,06,30,10.10
2008,06,08,06,31,8.80
2008,06,08,06,32,7.90
2008,06,08,06,33,4.30
2008,06,08,06,34,8.80
2008,06,08,06,35,7.60
2008,06,08,06,36,14.60
2008,06,08,06,37,11.50
2008,06,08,06,38,6.60
2008,06,08,06,39,7.00
2008,06,08,06,40,8.50
2008,06,08,06,41,8.60
2008,06,08,06,42,6.90
2008,06,08,06,43,7.30
2008,06,08,06,44,6.30
2008,06,08,06,45,12.90
2008,06,08,06,46,8.90
2008,06,08,06,47,6.40
2008,06,08,06,48,10.20
2008,06,08,06,49,10.10
2008,06,08,06,50,8.10
2008,06,08,06,51,5.80
2008,06,08,06,52,7.70
2008,06,08,06,53,6.30
2008,06,08,06,54,8.00
2008,06,08,06,55,8.40
2008,06,08,06,56,5.90
2008,06,08,06,57,7.10
2008,06,08,06,58,8.00
2008,06,08,06,59,8.50
2008,06,08,07,00,6.00
2008,06,08,07,01,9.80
2008,06,08,07,02,13.00
2008,06,08,07,03,10.70
2008,06,08,07,04,6.70
2008,06,08,07,05,3.10
2008,06,08,07,06,3.10
2008,06,08,07,07,4.10
2008,06,08,07,08,5.90
2008,06,08,07,09,9.30
2008,06,08,07,10,9.10
2008,06,08,07,11,7.00
2008,06,08,07,12,5.30
2008,06,08,07,13,5.60
2008,06,08,07,14,5.50
2008,06,08,07,15,6.30
2008,06,08,07,16,4.00
2008,06,08,07,17,5.10
2008,06,08,07,18,5.70
2008,06,08,07,19,6.60
2008,06,08,07,20,6.60
2008,06,08,07,21,8.60
2008,06,08,07,22,8.80
2008,06,08,07,23,7.60
2008,06,08,07,24,8.00
2008,06,08,07,25,6.90
2008,06,08,07,26,6.00
2008,06,08,07,27,4.60
2008,06,08,07,28,4.70
2008,06,08,07,29,4.30
2008,06,08,07,30,8.10
2008,06,08,07,31,8.40
2008,06,08,07,32,7.50
2008,06,08,07,33,5.90
2008,06,08,07,34,7.50
2008,06,08,07,35,10.70
2008,06,08,07,36,12.90
2008,06,08,07,37,10.00
2008,06,08,07,38,10.10
2008,06,08,07,39,11.40
2008,06,08,07,40,12.20
2008,06,08,07,41,10.20
2008,06,08,07,42,11.60
2008,06,08,07,43,13.70
2008,06,08,07,44,10.50
2008,06,08,07,45,10.20
2008,06,08,07,46,10.80
2008,06,08,07,47,9.30
2008,06,08,07,48,13.00
2008,06,08,07,49,10.70
2008,06,08,07,50,9.70
2008,06,08,07,51,10.10
2008,06,08,07,52,11.20
2008,06,08,07,53,10.60
2008,06,08,07,54,10.20
2008,06,08,07,55,8.60
2008,06,08,07,56,9.40
2008,06,08,07,57,9.10
2008,06,08,07,58,9.90
2008,06,08,07,59,11.50
2008,06,08,08,00,16.00
2008,06,08,08,01,10.70
2008,06,08,08,02,11.60
2008,06,08,08,03,15.30
2008,06,08,08,04,13.90
2008,06,08,08,05,15.90
2008,06,08,08,06,14.70
2008,06,08,08,07,10.30
2008,06,08,08,08,9.50
2008,06,08,08,09,16.10
2008,06,08,08,10,13.70
2008,06,08,08,11,14.20
2008,06,08,08,12,15.30
2008,06,08,08,13,12.70
2008,06,08,08,14,15.00
2008,06,08,08,15,12.60
2008,06,08,08,16,8.80
2008,06,08,08,17,9.90
2008,06,08,08,18,8.60
2008,06,08,08,19,12.00
2008,06,08,08,20,17.70
2008,06,08,08,21,11.90
2008,06,08,08,22,12.90
2008,06,08,08,23,10.70
2008,06,08,08,24,13.30
2008,06,08,08,25,13.90
2008,06,08,08,26,9.50
2008,06,08,08,27,12.40
2008,06,08,08,28,14.30
2008,06,08,08,29,17.60
2008,06,08,08,30,11.90
2008,06,08,08,31,14.50
2008,06,08,08,32,15.30
2008,06,08,08,33,17.00
2008,06,08,08,34,14.80
2008,06,08,08,35,17.30
2008,06,08,08,36,17.70
2008,06,08,08,37,16.60
2008,06,08,08,38,16.30
2008,06,08,08,39,17.70
2008,06,08,08,40,13.60
2008,06,08,08,41,16.40
2008,06,08,08,42,12.70
2008,06,08,08,43,14.80
2008,06,08,08,44,11.60
2008,06,08,08,45,16.90
2008,06,08,08,46,13.80
2008,06,08,08,47,15.00
2008,06,08,08,48,20.40
2008,06,08,08,49,13.30
2008,06,08,08,50,8.10
2008,06,08,08,51,16.30
2008,06,08,08,52,12.70
2008,06,08,08,53,20.60
2008,06,08,08,54,13.40
2008,06,08,08,55,14.20
2008,06,08,08,56,12.20
2008,06,08,08,57,15.80
2008,06,08,08,58,18.30
2008,06,08,08,59,22.60
2008,06,08,09,00,18.70
2008,06,08,09,01,17.90
2008,06,08,09,02,13.90
2008,06,08,09,03,17.90
2008,06,08,09,04,16.80
2008,06,08,09,05,12.50
2008,06,08,09,06,11.60
2008,06,08,09,07,17.40
2008,06,08,09,08,15.30
2008,06,08,09,09,16.60
2008,06,08,09,10,12.10
2008,06,08,09,11,12.60
2008,06,08,09,12,14.60
2008,06,08,09,13,14.90
2008,06,08,09,14,16.70
2008,06,08,09,15,19.50
2008,06,08,09,16,15.80
2008,06,08,09,17,16.90
2008,06,08,09,18,22.40
2008,06,08,09,19,19.30
2008,06,08,09,20,16.10
2008,06,08,09,21,16.10
2008,06,08,09,22,16.30
2008,06,08,09,23,18.50
2008,06,08,09,24,16.40
2008,06,08,09,25,18.40
2008,06,08,09,26,16.80
2008,06,08,09,27,17.90
2008,06,08,09,28,14.70
2008,06,08,09,29,10.90
2008,06,08,09,30,17.50
2008,06,08,09,31,12.80
2008,06,08,09,32,17.60
2008,06,08,09,33,9.80
2008,06,08,09,34,11.00
2008,06,08,09,35,13.60
2008,06,08,09,36,15.90
2008,06,08,09,37,12.40
2008,06,08,09,38,12.50
2008,06,08,09,39,16.30
2008,06,08,09,40,20.60
2008,06,08,09,41,14.30
2008,06,08,09,42,10.00
2008,06,08,09,43,21.00
2008,06,08,09,44,20.00
2008,06,08,09,45,15.10
2008,06,08,09,46,15.10
2008,06,08,09,47,9.80
2008,06,08,09,48,18.20
2008,06,08,09,49,17.60
2008,06,08,09,50,18.10
2008,06,08,09,51,11.90
2008,06,08,09,52,15.20
2008,06,08,09,53,21.40
2008,06,08,09,54,20.30
2008,06,08,09,55,20.80
2008,06,08,09,56,18.70
2008,06,08,09,57,22.50
2008,06,08,09,58,21.70
2008,06,08,09,59,21.20
2008,06,08,10,00,18.50
2008,06,08,10,01,18.70
2008,06,08,10,02,22.30
2008,06,08,10,03,20.70
2008,06,08,10,04,19.00
2008,06,08,10,05,20.80
2008,06,08,10,06,21.40
2008,06,08,10,07,16.80
2008,06,08,10,08,16.00
2008,06,08,10,09,22.40
2008,06,08,10,10,19.10
2008,06,08,10,11,19.90
2008,06,08,10,12,20.10
2008,06,08,10,13,17.50
2008,06,08,10,14,22.60
2008,06,08,10,15,21.20
2008,06,08,10,16,24.00
2008,06,08,10,17,21.50
2008,06,08,10,18,19.80
2008,06,08,10,19,11.30
2008,06,08,10,20,18.00
2008,06,08,10,21,14.90
2008,06,08,10,22,19.50
2008,06,08,10,23,19.60
2008,06,08,10,24,21.10
2008,06,08,10,25,24.80
2008,06,08,10,26,20.40
2008,06,08,10,27,20.30
2008,06,08,10,28,16.10
2008,06,08,10,29,19.60
2008,06,08,10,30,15.30
2008,06,08,10,31,19.20
2008,06,08,10,32,16.70
2008,06,08,10,33,14.70
2008,06,08,10,34,17.60
2008,06,08,10,35,17.60
2008,06,08,10,36,19.10
2008,06,08,10,37,22.40
2008,06,08,10,38,18.40
2008,06,08,10,39,15.30
2008,06,08,10,40,14.20
2008,06,08,10,41,18.70
2008,06,08,10,42,12.30
2008,06,08,10,43,17.80
2008,06,08,10,44,23.30
2008,06,08,10,45,15.40
2008,06,08,10,46,18.60
2008,06,08,10,47,18.20
2008,06,08,10,48,18.50
2008,06,08,10,49,20.90
2008,06,08,10,50,18.60
2008,06,08,10,51,24.00
2008,06,08,10,52,23.40
2008,06,08,10,53,22.60
2008,06,08,10,54,21.30
2008,06,08,10,55,17.50
2008,06,08,10,56,18.80
2008,06,08,10,57,21.10
2008,06,08,10,58,20.00
2008,06,08,10,59,17.00
2008,06,08,11,00,19.90
2008,06,08,11,01,18.00
2008,06,08,11,02,21.80
2008,06,08,11,03,27.60
2008,06,08,11,04,22.80
2008,06,08,11,05,19.60
2008,06,08,11,06,19.20
2008,06,08,11,07,14.40
2008,06,08,11,08,6.30
2008,06,08,11,09,18.50
2008,06,08,11,10,19.90
2008,06,08,11,11,13.30
2008,06,08,11,12,15.60
2008,06,08,11,13,18.50
2008,06,08,11,14,9.80
2008,06,08,11,15,21.90
2008,06,08,11,16,25.40
2008,06,08,11,17,16.90
2008,06,08,11,18,25.10
2008,06,08,11,19,18.50
2008,06,08,11,20,13.30
2008,06,08,11,21,12.90
2008,06,08,11,22,13.60
2008,06,08,11,23,9.50
2008,06,08,11,24,12.70
2008,06,08,11,25,14.90
2008,06,08,11,26,13.20
2008,06,08,11,27,14.70
2008,06,08,11,28,18.30
2008,06,08,11,29,14.10
2008,06,08,11,30,22.20
2008,06,08,11,31,17.50
2008,06,08,11,32,18.50
2008,06,08,11,33,12.10
2008,06,08,11,34,18.10
2008,06,08,11,35,17.10
2008,06,08,11,36,11.10
2008,06,08,11,37,9.30
2008,06,08,11,38,9.70
2008,06,08,11,39,14.00
2008,06,08,11,40,14.90
2008,06,08,11,41,17.40
2008,06,08,11,42,14.10
2008,06,08,11,43,17.30
2008,06,08,11,44,10.20
2008,06,08,11,45,14.70
2008,06,08,11,46,23.10
2008,06,08,11,47,13.30
2008,06,08,11,48,21.80
2008,06,08,11,49,11.30
2008,06,08,11,50,15.60
2008,06,08,11,51,13.70
2008,06,08,11,52,17.70
2008,06,08,11,53,18.30
2008,06,08,11,54,14.40
2008,06,08,11,55,17.90
2008,06,08,11,56,18.30
2008,06,08,11,57,18.20
2008,06,08,11,58,19.90
2008,06,08,11,59,19.70
2008,06,08,12,00,16.90
2008,06,08,12,01,11.40
2008,06,08,12,02,16.80
2008,06,08,12,03,16.10
2008,06,08,12,04,13.30
2008,06,08,12,05,15.80
2008,06,08,12,06,20.10
2008,06,08,12,07,18.00
2008,06,08,12,08,13.80
2008,06,08,12,09,10.10
2008,06,08,12,10,13.40
2008,06,08,12,11,14.80
2008,06,08,12,12,8.50
2008,06,08,12,13,9.00
2008,06,08,12,14,15.50
2008,06,08,12,15,19.90
2008,06,08,12,16,12.00
2008,06,08,12,17,14.20
2008,06,08,12,18,12.70
2008,06,08,12,19,17.00
2008,06,08,12,20,15.60
2008,06,08,12,21,13.20
2008,06,08,12,22,18.70
2008,06,08,12,23,16.90
2008,06,08,12,24,14.90
2008,06,08,12,25,14.80
2008,06,08,12,26,16.20
2008,06,08,12,27,18.50
2008,06,08,12,28,17.50
2008,06,08,12,29,13.70
2008,06,08,12,30,14.00
2008,06,08,12,31,10.00
2008,06,08,12,32,13.40
2008,06,08,12,33,11.90
2008,06,08,12,34,15.70
2008,06,08,12,35,15.70
2008,06,08,12,36,15.60
2008,06,08,12,37,11.70
2008,06,08,12,38,21.70
2008,06,08,12,39,16.50
2008,06,08,12,40,6.30
2008,06,08,12,41,15.00
2008,06,08,12,42,16.70
2008,06,08,12,43,11.80
2008,06,08,12,44,13.20
2008,06,08,12,45,8.40
2008,06,08,12,46,12.00
2008,06,08,12,47,17.10
2008,06,08,12,48,15.10
2008,06,08,12,49,15.80
2008,06,08,12,50,9.80
2008,06,08,12,51,14.80
2008,06,08,12,52,18.10
2008,06,08,12,53,18.10
2008,06,08,12,54,16.50
2008,06,08,12,55,12.40
2008,06,08,12,56,10.90
2008,06,08,12,57,12.60
2008,06,08,12,58,15.80
2008,06,08,12,59,12.80
2008,06,08,13,00,13.80
2008,06,08,13,01,10.30
2008,06,08,13,02,15.40
2008,06,08,13,03,16.00
2008,06,08,13,04,15.10
2008,06,08,13,05,14.20
2008,06,08,13,06,17.40
2008,06,08,13,07,16.60
2008,06,08,13,08,16.50
2008,06,08,13,09,15.50
2008,06,08,13,10,21.00
2008,06,08,13,11,16.90
2008,06,08,13,12,14.90
2008,06,08,13,13,13.20
2008,06,08,13,14,17.90
2008,06,08,13,15,16.40
2008,06,08,13,16,11.80
2008,06,08,13,17,11.10
2008,06,08,13,18,17.90
2008,06,08,13,19,15.00
2008,06,08,13,20,16.90
2008,06,08,13,21,19.30
2008,06,08,13,22,17.10
2008,06,08,13,23,14.40
2008,06,08,13,24,10.70
2008,06,08,13,25,14.30
2008,06,08,13,26,13.00
2008,06,08,13,27,16.80
2008,06,08,13,28,14.50
2008,06,08,13,29,12.80
2008,06,08,13,30,19.20
2008,06,08,13,31,17.50
2008,06,08,13,32,13.20
2008,06,08,13,33,16.50
2008,06,08,13,34,18.60
2008,06,08,13,35,16.40
2008,06,08,13,36,16.80
2008,06,08,13,37,16.10
2008,06,08,13,38,11.60
2008,06,08,13,39,16.20
2008,06,08,13,40,20.00
2008,06,08,13,41,16.80
2008,06,08,13,42,9.50
2008,06,08,13,43,13.80
2008,06,08,13,44,13.20
2008,06,08,13,45,19.90
2008,06,08,13,46,13.30
2008,06,08,13,47,11.30
2008,06,08,13,48,15.80
2008,06,08,13,49,20.20
2008,06,08,13,50,15.40
2008,06,08,13,51,11.30
2008,06,08,13,52,8.70
2008,06,08,13,53,11.20
2008,06,08,13,54,16.10
2008,06,08,13,55,16.50
2008,06,08,13,56,15.20
2008,06,08,13,57,12.10
2008,06,08,13,58,17.60
2008,06,08,13,59,19.40
2008,06,08,14,00,18.00
2008,06,08,14,01,12.80
2008,06,08,14,02,12.10
2008,06,08,14,03,12.00
2008,06,08,14,04,11.50
2008,06,08,14,05,13.30
2008,06,08,14,06,14.00
2008,06,08,14,07,14.10
2008,06,08,14,08,11.00
2008,06,08,14,09,17.90
2008,06,08,14,10,17.80
2008,06,08,14,11,16.90
2008,06,08,14,12,10.20
2008,06,08,14,13,12.90
2008,06,08,14,14,17.10
2008,06,08,14,15,14.00
2008,06,08,14,16,12.60
2008,06,08,14,17,8.20
2008,06,08,14,18,15.90
2008,06,08,14,19,11.20
2008,06,08,14,20,14.30
2008,06,08,14,21,10.60
2008,06,08,14,22,11.60
2008,06,08,14,23,12.90
2008,06,08,14,24,13.40
2008,06,08,14,25,16.20
2008,06,08,14,26,17.20
2008,06,08,14,27,7.50
2008,06,08,14,28,12.90
2008,06,08,14,29,11.40
2008,06,08,14,30,6.20
2008,06,08,14,31,10.50
2008,06,08,14,32,16.60
2008,06,08,14,33,15.40
2008,06,08,14,34,17.80
2008,06,08,14,35,14.80
2008,06,08,14,36,15.10
2008,06,08,14,37,12.30
2008,06,08,14,38,17.00
2008,06,08,14,39,9.70
2008,06,08,14,40,5.10
2008,06,08,14,41,19.20
2008,06,08,14,42,13.50
2008,06,08,14,43,15.40
2008,06,08,14,44,15.80
2008,06,08,14,45,11.00
2008,06,08,14,46,16.60
2008,06,08,14,47,11.70
2008,06,08,14,48,12.20
2008,06,08,14,49,9.90
2008,06,08,14,50,13.60
2008,06,08,14,51,17.90
2008,06,08,14,52,11.40
2008,06,08,14,53,16.60
2008,06,08,14,54,8.90
2008,06,08,14,55,16.40
2008,06,08,14,56,14.30
2008,06,08,14,57,19.10
2008,06,08,14,58,18.90
2008,06,08,14,59,14.70
2008,06,08,15,00,13.30
2008,06,08,15,01,13.40
2008,06,08,15,02,16.80
2008,06,08,15,03,12.10
2008,06,08,15,04,11.50
2008,06,08,15,05,13.70
2008,06,08,15,06,13.90
2008,06,08,15,07,11.60
2008,06,08,15,08,19.10
2008,06,08,15,09,17.70
2008,06,08,15,10,13.80
2008,06,08,15,11,16.20
2008,06,08,15,12,13.10
2008,06,08,15,13,13.30
2008,06,08,15,14,11.70
2008,06,08,15,15,17.90
2008,06,08,15,16,15.20
2008,06,08,15,17,16.30
2008,06,08,15,18,13.00
2008,06,08,15,19,9.80
2008,06,08,15,20,17.70
2008,06,08,15,21,19.80
2008,06,08,15,22,17.30
2008,06,08,15,23,15.90
2008,06,08,15,24,12.80
2008,06,08,15,25,10.00
2008,06,08,15,26,15.60
2008,06,08,15,27,16.80
2008,06,08,15,28,14.70
2008,06,08,15,29,16.70
2008,06,08,15,30,15.20
2008,06,08,15,31,13.70
2008,06,08,15,32,8.10
2008,06,08,15,33,14.00
2008,06,08,15,34,12.70
2008,06,08,15,35,9.50
2008,06,08,15,36,15.10
2008,06,08,15,37,8.10
2008,06,08,15,38,8.40
2008,06,08,15,39,10.70
2008,06,08,15,40,8.20
2008,06,08,15,41,13.20
2008,06,08,15,42,9.80
2008,06,08,15,43,11.20
2008,06,08,15,44,15.20
2008,06,08,15,45,11.60
2008,06,08,15,46,16.60
2008,06,08,15,47,20.50
2008,06,08,15,48,16.90
2008,06,08,15,49,9.60
2008,06,08,15,50,14.40
2008,06,08,15,51,13.50
2008,06,08,15,52,9.90
2008,06,08,15,53,12.20
2008,06,08,15,54,7.90
2008,06,08,15,55,10.00
2008,06,08,15,56,6.10
2008,06,08,15,57,8.20
2008,06,08,15,58,9.80
2008,06,08,15,59,8.70
2008,06,08,16,00,14.10
2008,06,08,16,01,10.90
2008,06,08,16,02,8.90
2008,06,08,16,03,11.50
2008,06,08,16,04,14.20
2008,06,08,16,05,12.40
2008,06,08,16,06,14.20
2008,06,08,16,07,7.80
2008,06,08,16,08,14.40
2008,06,08,16,09,17.40
2008,06,08,16,10,8.30
2008,06,08,16,11,7.40
2008,06,08,16,12,12.10
2008,06,08,16,13,16.90
2008,06,08,16,14,15.90
2008,06,08,16,15,9.10
2008,06,08,16,16,10.30
2008,06,08,16,17,8.50
2008,06,08,16,18,3.40
2008,06,08,16,19,8.60
2008,06,08,16,20,11.60
2008,06,08,16,21,11.50
2008,06,08,16,22,10.20
2008,06,08,16,23,11.50
2008,06,08,16,24,8.50
2008,06,08,16,25,11.60
2008,06,08,16,26,9.90
2008,06,08,16,27,8.60
2008,06,08,16,28,8.30
2008,06,08,16,29,8.20
2008,06,08,16,30,8.00
2008,06,08,16,31,16.00
2008,06,08,16,32,19.30
2008,06,08,16,33,17.80
2008,06,08,16,34,13.40
2008,06,08,16,35,16.70
2008,06,08,16,36,12.40
2008,06,08,16,37,15.00
2008,06,08,16,38,13.70
2008,06,08,16,39,12.60
2008,06,08,16,40,7.80
2008,06,08,16,41,6.60
2008,06,08,16,42,8.00
2008,06,08,16,43,7.70
2008,06,08,16,44,13.20
2008,06,08,16,45,14.40
2008,06,08,16,46,9.40
2008,06,08,16,47,13.70
2008,06,08,16,48,7.50
2008,06,08,16,49,7.90
2008,06,08,16,50,11.30
2008,06,08,16,51,10.70
2008,06,08,16,52,15.10
2008,06,08,16,53,12.40
2008,06,08,16,54,13.50
2008,06,08,16,55,11.50
2008,06,08,16,56,11.80
2008,06,08,16,57,16.50
2008,06,08,16,58,12.20
2008,06,08,16,59,11.20
2008,06,08,17,00,14.20
2008,06,08,17,01,18.50
2008,06,08,17,02,18.30
2008,06,08,17,03,18.20
2008,06,08,17,04,9.90
2008,06,08,17,05,8.40
2008,06,08,17,06,6.90
2008,06,08,17,07,9.50
2008,06,08,17,08,11.40
2008,06,08,17,09,13.00
2008,06,08,17,10,13.50
2008,06,08,17,11,10.10
2008,06,08,17,12,14.50
2008,06,08,17,13,11.50
2008,06,08,17,14,12.90
2008,06,08,17,15,13.60
2008,06,08,17,16,16.60
2008,06,08,17,17,19.60
2008,06,08,17,18,18.30
2008,06,08,17,19,8.10
2008,06,08,17,20,11.50
2008,06,08,17,21,13.70
2008,06,08,17,22,19.40
2008,06,08,17,23,10.20
2008,06,08,17,24,8.40
2008,06,08,17,25,11.50
2008,06,08,17,26,13.00
2008,06,08,17,27,9.50
2008,06,08,17,28,7.30
2008,06,08,17,29,17.10
2008,06,08,17,30,8.60
2008,06,08,17,31,16.10
2008,06,08,17,32,20.90
2008,06,08,17,33,18.00
2008,06,08,17,34,12.60
2008,06,08,17,35,9.90
2008,06,08,17,36,9.40
2008,06,08,17,37,16.40
2008,06,08,17,38,15.20